• In Hungary
  • List of Countries
  • For 7 days
  • Water Temperature
  • Satellite Maps
  • Weather Map
  • News
  • Weather Widgets
  • user-avatar
    Login

    Hourly Weather Akoba

    Today, 17 October, Wednesday

    Time Temperature Precipitation Wind Pressure Humidity
    00:00 +5°C° 0 mm 5 mps 754 mmHg 73%
    01:00 +5°C° 0 mm 5 mps 754 mmHg 75%
    02:00 +5°C° 0 mm 5 mps 754 mmHg 78%
    03:00 +5°C° 0 mm 5 mps 753 mmHg 82%
    04:00 +6°C° 0 mm 5 mps 753 mmHg 92%
    05:00 +7°C° 0 mm 5 mps 752 mmHg 93%
    06:00 +7°C° 0 mm 5 mps 752 mmHg 94%
    07:00 +7°C° 0 mm 5 mps 752 mmHg 96%
    08:00 +8°C° 0 mm 6 mps 751 mmHg 91%
    09:00 +9°C° 0 mm 6 mps 751 mmHg 86%
    10:00 +10°C° 0 mm 7 mps 751 mmHg 80%
    11:00 +11°C° 0 mm 7 mps 750 mmHg 72%
    12:00 +14°C° 0 mm 7 mps 750 mmHg 65%
    13:00 +15°C° 0 mm 8 mps 749 mmHg 57%
    14:00 +16°C° 0 mm 8 mps 749 mmHg 55%
    15:00 +16°C° 0 mm 7 mps 748 mmHg 52%
    16:00 +16°C° 0 mm 7 mps 748 mmHg 50%
    17:00 +15°C° 0 mm 7 mps 748 mmHg 54%
    18:00 +14°C° 0 mm 6 mps 748 mmHg 58%
    19:00 +11°C° 0 mm 6 mps 748 mmHg 62%
    20:00 +10°C° 0 mm 5 mps 748 mmHg 67%
    21:00 +10°C° 0 mm 5 mps 748 mmHg 71%
    22:00 +9°C° 0 mm 5 mps 748 mmHg 76%
    23:00 +9°C° 0 mm 5 mps 749 mmHg 74%

    Tomorrow, 18 October, Thursday

    Time Temperature Precipitation Wind Pressure Humidity
    00:00 +9°C° 0 mm 6 mps 749 mmHg 72%
    01:00 +8°C° 0 mm 6 mps 750 mmHg 70%
    02:00 +7°C° 0 mm 5 mps 750 mmHg 71%
    03:00 +6°C° 0 mm 5 mps 751 mmHg 72%
    04:00 +5°C° 0 mm 5 mps 751 mmHg 73%
    05:00 +4°C° 0 mm 4 mps 752 mmHg 74%
    06:00 +4°C° 0 mm 4 mps 752 mmHg 76%
    07:00 +3°C° 0 mm 4 mps 753 mmHg 78%
    08:00 +4°C° 0 mm 4 mps 753 mmHg 71%
    09:00 +5°C° 0 mm 4 mps 753 mmHg 65%
    10:00 +6°C° 0 mm 5 mps 754 mmHg 59%
    11:00 +7°C° 0 mm 5 mps 754 mmHg 54%
    12:00 +8°C° 0 mm 5 mps 754 mmHg 49%
    13:00 +9°C° 0 mm 5 mps 754 mmHg 44%
    14:00 +9°C° 0 mm 5 mps 754 mmHg 43%
    15:00 +9°C° 0 mm 6 mps 754 mmHg 42%
    16:00 +9°C° 0 mm 6 mps 754 mmHg 41%
    17:00 +8°C° 0 mm 5 mps 754 mmHg 45%
    18:00 +7°C° 0 mm 4 mps 754 mmHg 49%
    19:00 +6°C° 0 mm 4 mps 754 mmHg 52%
    20:00 +7°C° 0 mm 3 mps 754 mmHg 55%
    21:00 +5°C° 0 mm 3 mps 754 mmHg 58%
    22:00 +5°C° 0 mm 3 mps 754 mmHg 61%
    23:00 +5°C° 0 mm 3 mps 754 mmHg 63%

    Day after tomorrow, 19 October, Friday

    Time Temperature Precipitation Wind Pressure Humidity
    00:00 +4°C° 0 mm 3 mps 754 mmHg 65%
    01:00 +5°C° 0 mm 2 mps 754 mmHg 67%
    02:00 +5°C° 0 mm 2 mps 754 mmHg 67%
    03:00 +3°C° 0 mm 3 mps 754 mmHg 67%
    04:00 +3°C° 0 mm 3 mps 754 mmHg 68%
    05:00 +3°C° 0 mm 3 mps 754 mmHg 67%
    06:00 +3°C° 0 mm 3 mps 754 mmHg 67%
    07:00 +3°C° 0 mm 3 mps 754 mmHg 66%
    08:00 +5°C° 0 mm 4 mps 754 mmHg 60%
    09:00 +6°C° 0 mm 5 mps 754 mmHg 53%
    10:00 +8°C° 0 mm 6 mps 754 mmHg 47%
    11:00 +10°C° 0 mm 6 mps 754 mmHg 44%
    12:00 +11°C° 0 mm 6 mps 754 mmHg 41%
    13:00 +12°C° 0 mm 7 mps 753 mmHg 38%
    14:00 +12°C° 0 mm 7 mps 753 mmHg 38%
    15:00 +12°C° 0 mm 7 mps 753 mmHg 38%
    16:00 +13°C° 0 mm 6 mps 753 mmHg 38%
    17:00 +11°C° 0 mm 6 mps 753 mmHg 40%
    18:00 +10°C° 0 mm 5 mps 753 mmHg 42%
    19:00 +9°C° 0 mm 5 mps 753 mmHg 45%
    20:00 +8°C° 0 mm 5 mps 753 mmHg 45%
    21:00 +8°C° 0 mm 5 mps 753 mmHg 46%
    22:00 +8°C° 0 mm 5 mps 753 mmHg 46%
    23:00 +7°C° 0 mm 5 mps 753 mmHg 46%

    20 October, Saturday

    Time Temperature Precipitation Wind Pressure Humidity
    00:00 +7°C° 0 mm 4 mps 753 mmHg 47%
    01:00 +7°C° 0 mm 4 mps 753 mmHg 47%
    02:00 +6°C° 0 mm 4 mps 753 mmHg 47%
    03:00 +6°C° 0 mm 4 mps 753 mmHg 47%
    04:00 +6°C° 0 mm 4 mps 753 mmHg 47%
    05:00 +6°C° 0 mm 4 mps 753 mmHg 47%
    06:00 +5°C° 0 mm 4 mps 753 mmHg 47%
    07:00 +5°C° 0 mm 4 mps 753 mmHg 46%
    08:00 +7°C° 0 mm 5 mps 753 mmHg 42%
    09:00 +8°C° 0 mm 5 mps 753 mmHg 37%
    10:00 +10°C° 0 mm 6 mps 753 mmHg 33%
    11:00 +11°C° 0 mm 6 mps 752 mmHg 31%
    12:00 +12°C° 0 mm 7 mps 752 mmHg 28%
    13:00 +15°C° 0 mm 7 mps 752 mmHg 26%
    14:00 +15°C° 0 mm 7 mps 751 mmHg 25%
    15:00 +14°C° 0 mm 6 mps 751 mmHg 24%
    16:00 +14°C° 0 mm 6 mps 750 mmHg 23%
    17:00 +13°C° 0 mm 5 mps 750 mmHg 26%
    18:00 +12°C° 0 mm 5 mps 750 mmHg 29%
    19:00 +11°C° 0 mm 4 mps 750 mmHg 32%
    20:00 +11°C° 0 mm 4 mps 750 mmHg 36%
    21:00 +10°C° 0 mm 4 mps 750 mmHg 40%
    22:00 +10°C° 0 mm 4 mps 750 mmHg 44%
    23:00 +8°C° 0 mm 4 mps 749 mmHg 50%

    21 October, Sunday

    Time Temperature Precipitation Wind Pressure Humidity
    00:00 +8°C° 0 mm 4 mps 749 mmHg 56%
    01:00 +8°C° 0 mm 4 mps 749 mmHg 61%
    02:00 +7°C° 0 mm 4 mps 749 mmHg 66%
    03:00 +8°C° 0 mm 3 mps 749 mmHg 72%
    04:00 +8°C° 0 mm 3 mps 749 mmHg 77%
    05:00 +7°C° 0 mm 3 mps 750 mmHg 79%
    06:00 +7°C° 0 mm 2 mps 750 mmHg 82%
    07:00 +7°C° 0 mm 2 mps 750 mmHg 84%
    08:00 +8°C° 0 mm 2 mps 750 mmHg 79%
    09:00 +9°C° 0 mm 2 mps 751 mmHg 74%
    10:00 +10°C° 0 mm 2 mps 751 mmHg 70%
    11:00 +12°C° 0 mm 2 mps 751 mmHg 65%
    12:00 +13°C° 0 mm 2 mps 751 mmHg 59%
    13:00 +14°C° 0 mm 2 mps 751 mmHg 54%
    14:00 +14°C° 0 mm 2 mps 751 mmHg 52%
    15:00 +14°C° 0 mm 2 mps 751 mmHg 50%
    16:00 +12°C° 0 mm 3 mps 751 mmHg 48%
    17:00 +11°C° 0 mm 3 mps 751 mmHg 52%
    18:00 +10°C° 0 mm 2 mps 751 mmHg 55%
    19:00 +9°C° 0 mm 2 mps 752 mmHg 58%
    20:00 +8°C° 0 mm 2 mps 752 mmHg 60%
    21:00 +8°C° 0 mm 2 mps 752 mmHg 63%
    22:00 +7°C° 0 mm 2 mps 752 mmHg 65%
    23:00 +7°C° 0 mm 2 mps 753 mmHg 67%

    22 October, Monday

    Time Temperature Precipitation Wind Pressure Humidity
    00:00 +6°C° 0 mm 2 mps 753 mmHg 70%
    01:00 +6°C° 0 mm 2 mps 753 mmHg 73%
    02:00 +5°C° 0 mm 2 mps 753 mmHg 75%
    03:00 +5°C° 0 mm 2 mps 753 mmHg 78%
    04:00 +5°C° 0 mm 2 mps 753 mmHg 81%
    05:00 +4°C° 0 mm 2 mps 753 mmHg 84%
    06:00 +4°C° 0 mm 2 mps 754 mmHg 86%
    07:00 +4°C° 0 mm 2 mps 754 mmHg 89%
    08:00 +4°C° 0 mm 3 mps 754 mmHg 81%
    09:00 +5°C° 0 mm 3 mps 754 mmHg 74%
    10:00 +6°C° 0 mm 4 mps 755 mmHg 66%
    11:00 +7°C° 0 mm 4 mps 755 mmHg 60%
    12:00 +8°C° 0 mm 4 mps 755 mmHg 54%
    13:00 +8°C° 0 mm 4 mps 755 mmHg 48%
    14:00 +8°C° 0 mm 4 mps 755 mmHg 47%
    15:00 +8°C° 0 mm 4 mps 755 mmHg 46%
    16:00 +8°C° 0 mm 4 mps 755 mmHg 44%
    17:00 +8°C° 0 mm 3 mps 755 mmHg 48%
    18:00 +7°C° 0 mm 3 mps 755 mmHg 52%
    19:00 +4°C° 0 mm 3 mps 755 mmHg 56%
    20:00 +5°C° 0 mm 2 mps 755 mmHg 58%
    21:00 +4°C° 0 mm 2 mps 755 mmHg 60%
    22:00 +4°C° 0 mm 2 mps 755 mmHg 63%
    23:00 +3°C° 0 mm 2 mps 755 mmHg 65%
    Show more